,,,PA_Meas_PMT16A,,PR_Meas_QMR101_102,,RH_Meas_QMH101,,SR_Meas_QMS101,,TA_Meas_QMH101,,GenWind,,GenWind,
date,time,status,PA,status,PR,status,RH,status,SR,status,TA,status,DirAvg,status,SpdAvg,
2012-06-21, 00:00:05,VALID,1002.46,VALID,0,VALID,93.974,VALID,0,VALID,24.111,VALID,296,VALID,1.05273,
2012-06-21, 00:01:05,VALID,1002.47,VALID,0,VALID,93.8596,VALID,0,VALID,24.1305,VALID,126,VALID,0.926562,
2012-06-21, 00:02:05,VALID,1002.44,VALID,0,VALID,93.8138,VALID,0,VALID,24.111,VALID,132,VALID,1.10586,
2012-06-21, 00:03:05,VALID,1002.43,VALID,0,VALID,93.9206,VALID,0,VALID,24.1092,VALID,135,VALID,0.901563,
2012-06-21, 00:04:05,VALID,1002.41,VALID,0,VALID,93.9359,VALID,0,VALID,24.1305,VALID,156,VALID,0.821484,
2012-06-21, 00:05:05,VALID,1002.38,VALID,0,VALID,93.8443,VALID,0,VALID,24.1305,VALID,156,VALID,0.866797,
2012-06-21, 00:06:05,VALID,1002.35,VALID,0,VALID,93.8062,VALID,0,VALID,24.1305,VALID,156,VALID,0.755078,
2012-06-21, 00:07:05,VALID,1002.37,VALID,0,VALID,93.8062,VALID,0,VALID,24.1305,VALID,156,VALID,0.364062,
2012-06-21, 00:08:05,VALID,1002.31,VALID,0,VALID,93.6765,VALID,0,VALID,24.0915,VALID,156,VALID,0.194531,
2012-06-21, 00:09:05,VALID,1002.31,VALID,0,VALID,93.707,VALID,0,VALID,24.0915,VALID,156,VALID,0.354297,
2012-06-21, 00:10:05,VALID,1002.31,VALID,0,VALID,93.6231,VALID,0,VALID,24.0525,VALID,156,VALID,0.325781,
2012-06-21, 00:11:05,VALID,1002.29,VALID,0,VALID,93.5163,VALID,0,VALID,23.9939,VALID,156,VALID,0.325781,
2012-06-21, 00:12:05,VALID,1002.29,VALID,0,VALID,93.4628,VALID,0,VALID,23.9549,VALID,156,VALID,0.445703,
2012-06-21, 00:13:05,VALID,1002.24,VALID,0,VALID,93.6612,VALID,0,VALID,23.9159,VALID,156,VALID,0.355469,
2012-06-21, 00:14:05,VALID,1002.23,VALID,0,VALID,93.852,VALID,0,VALID,23.875,VALID,156,VALID,0.228516,
2012-06-21, 00:15:05,VALID,1002.24,VALID,0,VALID,94.0122,VALID,0,VALID,23.8963,VALID,156,VALID,0,
2012-06-21, 00:16:05,VALID,1002.22,VALID,0,VALID,94.0122,VALID,0,VALID,23.8378,VALID,156,VALID,0.000390625,
2012-06-21, 00:17:05,VALID,1002.22,VALID,0,VALID,94.1114,VALID,0,VALID,23.8183,VALID,156,VALID,0,
2012-06-21, 00:18:05,VALID,1002.25,VALID,0,VALID,94.1877,VALID,0,VALID,23.7988,VALID,156,VALID,0,
2012-06-21, 00:19:05,VALID,1002.26,VALID,0,VALID,94.2563,VALID,0,VALID,23.7793,VALID,156,VALID,0,
2012-06-21, 00:20:05,VALID,1002.23,VALID,0,VALID,94.2487,VALID,0,VALID,23.7597,VALID,156,VALID,0,
2012-06-21, 00:21:05,VALID,1002.26,VALID,0,VALID,94.3174,VALID,0,VALID,23.6994,VALID,156,VALID,0.240234,
2012-06-21, 00:22:05,VALID,1002.23,VALID,0,VALID,94.325,VALID,0,VALID,23.6817,VALID,155,VALID,0.958203,
2012-06-21, 00:23:05,VALID,1002.24,VALID,0,VALID,94.6302,VALID,0,VALID,23.7988,VALID,152,VALID,1.19883,
2012-06-21, 00:24:05,VALID,1002.21,VALID,0,VALID,94.8133,VALID,0,VALID,23.9159,VALID,152,VALID,1.03711,
2012-06-21, 00:25:05,VALID,1002.22,VALID,0,VALID,94.882,VALID,0,VALID,24.0134,VALID,152,VALID,0.717578,
2012-06-21, 00:26:05,VALID,1002.21,VALID,0,VALID,94.8514,VALID,0,VALID,24.072,VALID,152,VALID,0.592969,
2012-06-21, 00:27:05,VALID,1002.2,VALID,0,VALID,94.5768,VALID,0,VALID,24.0525,VALID,152,VALID,0.622656,
2012-06-21, 00:28:05,VALID,1002.23,VALID,0,VALID,94.2868,VALID,0,VALID,24.0134,VALID,152,VALID,0.536719,
2012-06-21, 00:29:05,VALID,1002.25,VALID,0,VALID,94.0885,VALID,0,VALID,23.9939,VALID,141,VALID,0.825781,
2012-06-21, 00:30:05,VALID,1002.27,VALID,0,VALID,94.0503,VALID,0,VALID,24.0134,VALID,123,VALID,0.950781,
2012-06-21, 00:31:05,VALID,1002.28,VALID,0,VALID,94.1877,VALID,0,VALID,24.0329,VALID,123,VALID,0.878906,
2012-06-21, 00:32:05,VALID,1002.29,VALID,0,VALID,94.2334,VALID,0,VALID,24.0329,VALID,123,VALID,0.742578,
2012-06-21, 00:33:05,VALID,1002.3,VALID,0,VALID,94.2563,VALID,0,VALID,24.0116,VALID,123,VALID,0.642578,
2012-06-21, 00:34:05,VALID,1002.31,VALID,0,VALID,94.1571,VALID,0,VALID,23.9726,VALID,123,VALID,0.704297,
2012-06-21, 00:35:05,VALID,1002.31,VALID,0,VALID,94.264,VALID,0,VALID,24.0329,VALID,123,VALID,0.476563,
2012-06-21, 00:36:05,VALID,1002.28,VALID,0,VALID,94.4547,VALID,0,VALID,24.0311,VALID,123,VALID,0.403906,
2012-06-21, 00:37:05,VALID,1002.32,VALID,0,VALID,94.531,VALID,0.104696,VALID,24.0311,VALID,70,VALID,0.863672,
2012-06-21, 00:38:05,VALID,1002.3,VALID,0,VALID,94.5386,VALID,0,VALID,24.0915,VALID,70,VALID,1.01133,
2012-06-21, 00:39:05,VALID,1002.3,VALID,0,VALID,94.5997,VALID,0,VALID,24.0701,VALID,70,VALID,1.06562,
2012-06-21, 00:40:05,VALID,1002.29,VALID,0,VALID,94.5081,VALID,0,VALID,24.0701,VALID,66,VALID,1.44414,
2012-06-21, 00:41:05,VALID,1002.33,VALID,0,VALID,94.3097,VALID,0,VALID,24.0506,VALID,69,VALID,0.900391,
2012-06-21, 00:42:05,VALID,1002.34,VALID,0,VALID,94.1114,VALID,0,VALID,24.0329,VALID,69,VALID,0.875781,
2012-06-21, 00:43:05,VALID,1002.32,VALID,0,VALID,93.852,VALID,0,VALID,23.9549,VALID,69,VALID,0.79375,
2012-06-21, 00:44:05,VALID,1002.33,VALID,0,VALID,93.8291,VALID,0,VALID,23.9336,VALID,95,VALID,0.792578,
2012-06-21, 00:45:05,VALID,1002.33,VALID,0,VALID,93.8062,VALID,0,VALID,23.9549,VALID,74,VALID,0.973047,
2012-06-21, 00:46:05,VALID,1002.34,VALID,0,VALID,93.7146,VALID,0,VALID,23.8963,VALID,70,VALID,0.965625,
2012-06-21, 00:47:05,VALID,1002.32,VALID,0,VALID,93.7909,VALID,0,VALID,23.875,VALID,70,VALID,0.823828,
2012-06-21, 00:48:05,VALID,1002.33,VALID,0,VALID,93.8291,VALID,0,VALID,23.8945,VALID,87,VALID,0.567578,
2012-06-21, 00:49:05,VALID,1002.34,VALID,0,VALID,93.7757,VALID,0,VALID,23.914,VALID,99,VALID,0.881641,
2012-06-21, 00:50:05,VALID,1002.33,VALID,0,VALID,93.6536,VALID,0,VALID,23.9159,VALID,100,VALID,0.488672,
2012-06-21, 00:51:05,VALID,1002.31,VALID,0,VALID,93.6612,VALID,0,VALID,23.875,VALID,100,VALID,0.407422,
2012-06-21, 00:52:05,VALID,1002.29,VALID,0,VALID,93.6536,VALID,0,VALID,23.8573,VALID,100,VALID,0.162109,
2012-06-21, 00:53:05,VALID,1002.29,VALID,0,VALID,93.6688,VALID,0,VALID,23.8165,VALID,100,VALID,0.00273437,
2012-06-21, 00:54:05,VALID,1002.3,VALID,0,VALID,93.768,VALID,0,VALID,23.8183,VALID,110,VALID,0.663281,
2012-06-21, 00:55:05,VALID,1002.25,VALID,0,VALID,93.852,VALID,0,VALID,23.7775,VALID,116,VALID,0.723437,
2012-06-21, 00:56:05,VALID,1002.24,VALID,0,VALID,93.8825,VALID,0,VALID,23.8183,VALID,116,VALID,0.562109,
2012-06-21, 00:57:05,VALID,1002.26,VALID,0,VALID,93.7451,VALID,0,VALID,23.8378,VALID,116,VALID,0.48125,
2012-06-21, 00:58:05,VALID,1002.24,VALID,0,VALID,93.5391,VALID,0,VALID,23.8183,VALID,116,VALID,0.409766,
2012-06-21, 00:59:05,VALID,1002.26,VALID,0,VALID,93.3789,VALID,0,VALID,23.8378,VALID,116,VALID,0.691797,
2012-06-21, 01:00:05,VALID,1002.27,VALID,0,VALID,93.2492,VALID,0,VALID,23.8768,VALID,116,VALID,0.464063,
2012-06-21, 01:01:05,VALID,1002.26,VALID,0,VALID,93.0585,VALID,0,VALID,23.8573,VALID,116,VALID,0.312109,
2012-06-21, 01:02:05,VALID,1002.25,VALID,0,VALID,92.8296,VALID,0,VALID,23.8768,VALID,116,VALID,0.505078,
2012-06-21, 01:03:05,VALID,1002.27,VALID,0,VALID,92.7304,VALID,0,VALID,23.8768,VALID,116,VALID,0.739062,
2012-06-21, 01:04:05,VALID,1002.29,VALID,0,VALID,92.6846,VALID,0,VALID,23.875,VALID,116,VALID,0.225,
2012-06-21, 01:05:05,VALID,1002.26,VALID,0,VALID,92.6083,VALID,0,VALID,23.8768,VALID,116,VALID,0.209766,
2012-06-21, 01:06:05,VALID,1002.23,VALID,0,VALID,92.738,VALID,0,VALID,23.8573,VALID,42,VALID,0.860937,
2012-06-21, 01:07:05,VALID,1002.2,VALID,0,VALID,93.0737,VALID,0,VALID,23.8183,VALID,39,VALID,0.792188,
2012-06-21, 01:08:05,VALID,1002.2,VALID,0,VALID,93.15,VALID,0,VALID,23.7189,VALID,19,VALID,0.91875,
2012-06-21, 01:09:05,VALID,1002.16,VALID,0,VALID,93.4781,VALID,0,VALID,23.6817,VALID,19,VALID,0.842188,
2012-06-21, 01:10:05,VALID,1002.14,VALID,0,VALID,93.913,VALID,0,VALID,23.6214,VALID,19,VALID,0.773047,
2012-06-21, 01:11:05,VALID,1002.11,VALID,0,VALID,94.1877,VALID,0,VALID,23.6019,VALID,19,VALID,0.435547,
2012-06-21, 01:12:05,VALID,1002.05,VALID,0,VALID,94.2868,VALID,0,VALID,23.5823,VALID,19,VALID,0.0789063,
2012-06-21, 01:13:05,VALID,1002.02,VALID,0,VALID,94.3479,VALID,0,VALID,23.5433,VALID,19,VALID,0.446875,
2012-06-21, 01:14:05,VALID,1002.02,VALID,0,VALID,94.5386,VALID,0,VALID,23.5841,VALID,19,VALID,0.189844,
2012-06-21, 01:15:05,VALID,1001.98,VALID,0,VALID,94.6302,VALID,0,VALID,23.5433,VALID,19,VALID,0.306641,
2012-06-21, 01:16:05,VALID,1001.99,VALID,0,VALID,94.7294,VALID,0,VALID,23.5628,VALID,19,VALID,0.147656,
2012-06-21, 01:17:05,VALID,1002,VALID,0,VALID,94.7828,VALID,0,VALID,23.5628,VALID,19,VALID,0.228906,
2012-06-21, 01:18:05,VALID,1002.01,VALID,0,VALID,94.8057,VALID,0,VALID,23.5628,VALID,19,VALID,0.230469,
2012-06-21, 01:19:05,VALID,1001.98,VALID,0,VALID,94.8591,VALID,0.104696,VALID,23.5823,VALID,19,VALID,0.141406,
2012-06-21, 01:20:05,VALID,1001.97,VALID,0,VALID,94.8514,VALID,0,VALID,23.5823,VALID,19,VALID,0.132813,
2012-06-21, 01:21:05,VALID,1001.94,VALID,0,VALID,94.8209,VALID,0,VALID,23.6036,VALID,17,VALID,0.420312,
2012-06-21, 01:22:05,VALID,1001.93,VALID,0,VALID,94.798,VALID,0,VALID,23.6019,VALID,17,VALID,0.139844,
2012-06-21, 01:23:05,VALID,1001.95,VALID,0,VALID,94.7599,VALID,0,VALID,23.6427,VALID,17,VALID,0.578516,
2012-06-21, 01:24:05,VALID,1001.95,VALID,0,VALID,94.6683,VALID,0,VALID,23.6214,VALID,17,VALID,0.582031,
2012-06-21, 01:25:05,VALID,1001.93,VALID,0,VALID,94.6073,VALID,0,VALID,23.6214,VALID,17,VALID,0.45625,
2012-06-21, 01:26:05,VALID,1001.95,VALID,0,VALID,94.5539,VALID,0,VALID,23.6232,VALID,17,VALID,0.596875,
2012-06-21, 01:27:05,VALID,1001.94,VALID,0,VALID,94.5081,VALID,0.104696,VALID,23.6214,VALID,17,VALID,0.260938,
2012-06-21, 01:28:04,VALID,1001.95,VALID,0,VALID,94.4471,VALID,0,VALID,23.6427,VALID,17,VALID,0.23125,
2012-06-21, 01:29:04,VALID,1001.94,VALID,0,VALID,94.2945,VALID,0,VALID,23.7012,VALID,17,VALID,0.235547,
2012-06-21, 01:30:04,VALID,1001.96,VALID,0,VALID,94.0351,VALID,0,VALID,23.6994,VALID,17,VALID,0.437891,
2012-06-21, 01:31:04,VALID,1001.94,VALID,0,VALID,93.7528,VALID,0,VALID,23.7189,VALID,17,VALID,0.26875,
2012-06-21, 01:32:04,VALID,1001.98,VALID,0,VALID,93.5468,VALID,0,VALID,23.7793,VALID,17,VALID,0.210938,
2012-06-21, 01:33:04,VALID,1001.95,VALID,0,VALID,93.3789,VALID,0,VALID,23.7775,VALID,24,VALID,0.58125,
2012-06-21, 01:34:04,VALID,1001.91,VALID,0,VALID,93.1043,VALID,0,VALID,23.8183,VALID,57,VALID,0.685547,
2012-06-21, 01:35:04,VALID,1001.91,VALID,0,VALID,92.8448,VALID,0,VALID,23.8573,VALID,87,VALID,0.797656,
2012-06-21, 01:36:04,VALID,1001.85,VALID,0,VALID,92.5854,VALID,0,VALID,23.8963,VALID,87,VALID,0.864453,
2012-06-21, 01:37:04,VALID,1001.87,VALID,0,VALID,92.3337,VALID,0,VALID,23.9159,VALID,87,VALID,0.914844,
2012-06-21, 01:38:04,VALID,1001.83,VALID,0,VALID,92.1658,VALID,0,VALID,23.8573,VALID,75,VALID,0.971875,
2012-06-21, 01:39:04,VALID,1001.79,VALID,0,VALID,92.3031,VALID,0,VALID,23.8183,VALID,61,VALID,1.06445,
2012-06-21, 01:40:04,VALID,1001.78,VALID,0,VALID,92.6541,VALID,0,VALID,23.7597,VALID,53,VALID,1.14844,
2012-06-21, 01:41:04,VALID,1001.77,VALID,0,VALID,93.1348,VALID,0,VALID,23.7402,VALID,51,VALID,1.04258,
2012-06-21, 01:42:04,VALID,1001.75,VALID,0,VALID,93.3789,VALID,0,VALID,23.7012,VALID,50,VALID,0.502734,
2012-06-21, 01:43:04,VALID,1001.73,VALID,0,VALID,93.4628,VALID,0,VALID,23.6622,VALID,50,VALID,0.443359,
2012-06-21, 01:44:04,VALID,1001.72,VALID,0,VALID,93.6917,VALID,0,VALID,23.6445,VALID,50,VALID,0.323438,
2012-06-21, 01:45:04,VALID,1001.7,VALID,0,VALID,93.8825,VALID,0,VALID,23.5628,VALID,50,VALID,0.469922,
2012-06-21, 01:46:04,VALID,1001.69,VALID,0,VALID,94.0656,VALID,0,VALID,23.5646,VALID,50,VALID,0.4875,
2012-06-21, 01:47:04,VALID,1001.68,VALID,0,VALID,94.2563,VALID,0,VALID,23.5646,VALID,50,VALID,0.418359,
2012-06-21, 01:48:04,VALID,1001.69,VALID,0,VALID,94.4394,VALID,0,VALID,23.5646,VALID,50,VALID,0.324609,
2012-06-21, 01:49:04,VALID,1001.68,VALID,0,VALID,94.4928,VALID,0,VALID,23.5646,VALID,50,VALID,0.298438,
2012-06-21, 01:50:04,VALID,1001.73,VALID,0,VALID,94.5768,VALID,0,VALID,23.5646,VALID,50,VALID,0.254297,
2012-06-21, 01:51:04,VALID,1001.72,VALID,0,VALID,94.6149,VALID,0,VALID,23.5451,VALID,50,VALID,0,
2012-06-21, 01:52:04,VALID,1001.73,VALID,0,VALID,94.6454,VALID,0,VALID,23.5451,VALID,50,VALID,0.185156,
2012-06-21, 01:53:04,VALID,1001.72,VALID,0,VALID,94.6912,VALID,0,VALID,23.5451,VALID,50,VALID,0.00546875,
2012-06-21, 01:54:04,VALID,1001.75,VALID,0,VALID,94.7065,VALID,0,VALID,23.5256,VALID,50,VALID,0,
2012-06-21, 01:55:04,VALID,1001.76,VALID,0,VALID,94.7294,VALID,0,VALID,23.5043,VALID,50,VALID,0,
2012-06-21, 01:56:04,VALID,1001.77,VALID,0,VALID,94.7675,VALID,0,VALID,23.5256,VALID,50,VALID,0,
2012-06-21, 01:57:04,VALID,1001.76,VALID,0,VALID,94.7904,VALID,0,VALID,23.5256,VALID,50,VALID,0,
2012-06-21, 01:58:04,VALID,1001.74,VALID,0,VALID,94.8133,VALID,0,VALID,23.5256,VALID,50,VALID,0.278516,
2012-06-21, 01:59:04,VALID,1001.77,VALID,0,VALID,94.8285,VALID,0,VALID,23.5256,VALID,50,VALID,0.4625,
2012-06-21, 02:00:04,VALID,1001.74,VALID,0,VALID,94.8438,VALID,0,VALID,23.5256,VALID,50,VALID,0.621875,
2012-06-21, 02:01:04,VALID,1001.74,VALID,0,VALID,94.8438,VALID,0,VALID,23.5451,VALID,50,VALID,0.740234,
2012-06-21, 02:02:04,VALID,1001.77,VALID,0,VALID,94.8362,VALID,0,VALID,23.5841,VALID,50,VALID,0.774219,
2012-06-21, 02:03:04,VALID,1001.76,VALID,0,VALID,94.798,VALID,0,VALID,23.5841,VALID,50,VALID,0.730859,
2012-06-21, 02:04:04,VALID,1001.74,VALID,0,VALID,94.737,VALID,0,VALID,23.6036,VALID,50,VALID,0.598047,
2012-06-21, 02:05:04,VALID,1001.75,VALID,0,VALID,94.4776,VALID,0,VALID,23.6036,VALID,50,VALID,0.613281,
2012-06-21, 02:06:04,VALID,1001.72,VALID,0,VALID,94.4318,VALID,0,VALID,23.6036,VALID,50,VALID,0.727734,
2012-06-21, 02:07:04,VALID,1001.72,VALID,0,VALID,94.386,VALID,0,VALID,23.6232,VALID,50,VALID,0.795703,
2012-06-21, 02:08:04,VALID,1001.71,VALID,0,VALID,94.2792,VALID,0,VALID,23.5841,VALID,50,VALID,0.699609,
2012-06-21, 02:09:04,VALID,1001.71,VALID,0,VALID,94.1953,VALID,0,VALID,23.5841,VALID,50,VALID,0.660156,
2012-06-21, 02:10:04,VALID,1001.71,VALID,0,VALID,94.1877,VALID,0,VALID,23.5841,VALID,50,VALID,0.6125,
2012-06-21, 02:11:04,VALID,1001.69,VALID,0,VALID,94.2487,VALID,0,VALID,23.5841,VALID,50,VALID,0.592578,
2012-06-21, 02:12:04,VALID,1001.69,VALID,0,VALID,94.2716,VALID,0,VALID,23.5841,VALID,50,VALID,0.73125,
2012-06-21, 02:13:04,VALID,1001.67,VALID,0,VALID,94.3326,VALID,0,VALID,23.5646,VALID,50,VALID,0.828125,
2012-06-21, 02:14:04,VALID,1001.63,VALID,0,VALID,94.3784,VALID,0,VALID,23.5451,VALID,50,VALID,0.814453,
2012-06-21, 02:15:04,VALID,1001.63,VALID,0,VALID,94.4471,VALID,0,VALID,23.5451,VALID,50,VALID,0.819531,
2012-06-21, 02:16:04,VALID,1001.62,VALID,0,VALID,94.4776,VALID,0,VALID,23.5256,VALID,50,VALID,0.692578,
2012-06-21, 02:17:04,VALID,1001.59,VALID,0,VALID,94.5005,VALID,0,VALID,23.5451,VALID,50,VALID,0.685547,
2012-06-21, 02:18:04,VALID,1001.58,VALID,0,VALID,94.5234,VALID,0,VALID,23.5256,VALID,50,VALID,0.585156,
2012-06-21, 02:19:04,VALID,1001.52,VALID,0,VALID,94.5691,VALID,0,VALID,23.5061,VALID,50,VALID,0.741016,
2012-06-21, 02:20:04,VALID,1001.52,VALID,0,VALID,94.6378,VALID,0,VALID,23.4866,VALID,25,VALID,0.901563,
2012-06-21, 02:21:04,VALID,1001.52,VALID,0,VALID,94.7141,VALID,0,VALID,23.4671,VALID,20,VALID,0.948438,
2012-06-21, 02:22:04,VALID,1001.52,VALID,0,VALID,94.798,VALID,0,VALID,23.4671,VALID,20,VALID,0.739844,
2012-06-21, 02:23:04,VALID,1001.51,VALID,0,VALID,94.8514,VALID,0,VALID,23.4671,VALID,20,VALID,0.845312,
2012-06-21, 02:24:04,VALID,1001.5,VALID,0,VALID,94.9201,VALID,0,VALID,23.4671,VALID,11,VALID,0.852734,
2012-06-21, 02:25:04,VALID,1001.51,VALID,0,VALID,94.9125,VALID,0,VALID,23.4884,VALID,11,VALID,0.747656,
2012-06-21, 02:26:04,VALID,1001.5,VALID,0,VALID,94.9354,VALID,0,VALID,23.4866,VALID,11,VALID,0.584375,
2012-06-21, 02:27:04,VALID,1001.52,VALID,0,VALID,94.943,VALID,0,VALID,23.4866,VALID,11,VALID,0.382813,
2012-06-21, 02:28:04,VALID,1001.54,VALID,0,VALID,94.9583,VALID,0,VALID,23.5061,VALID,11,VALID,0.111719,
2012-06-21, 02:29:04,VALID,1001.55,VALID,0,VALID,94.9583,VALID,0,VALID,23.4884,VALID,11,VALID,0.3875,
2012-06-21, 02:30:04,VALID,1001.53,VALID,0,VALID,94.943,VALID,0,VALID,23.4671,VALID,11,VALID,0.804297,
2012-06-21, 02:31:04,VALID,1001.53,VALID,0,VALID,94.9048,VALID,0,VALID,23.4475,VALID,45,VALID,1.00469,
2012-06-21, 02:32:04,VALID,1001.49,VALID,0,VALID,94.8667,VALID,0,VALID,23.4475,VALID,45,VALID,0.98125,
2012-06-21, 02:33:04,VALID,1001.45,VALID,0,VALID,94.8514,VALID,0,VALID,23.4688,VALID,45,VALID,0.961328,
2012-06-21, 02:34:04,VALID,1001.42,VALID,0,VALID,94.8362,VALID,0,VALID,23.4475,VALID,45,VALID,1.1043,
2012-06-21, 02:35:04,VALID,1001.39,VALID,0,VALID,94.8057,VALID,0,VALID,23.4671,VALID,45,VALID,1.0082,
2012-06-21, 02:36:04,VALID,1001.36,VALID,0,VALID,94.7751,VALID,0,VALID,23.4866,VALID,45,VALID,0.858594,
2012-06-21, 02:37:04,VALID,1001.34,VALID,0,VALID,94.7217,VALID,0,VALID,23.4866,VALID,45,VALID,0.848828,
2012-06-21, 02:38:04,VALID,1001.35,VALID,0,VALID,94.6607,VALID,0,VALID,23.5061,VALID,45,VALID,0.976172,
2012-06-21, 02:39:04,VALID,1001.31,VALID,0,VALID,94.6149,VALID,0,VALID,23.5079,VALID,45,VALID,1.17422,
2012-06-21, 02:40:04,VALID,1001.32,VALID,0,VALID,94.5157,VALID,0,VALID,23.5061,VALID,42,VALID,1.23594,
2012-06-21, 02:41:04,VALID,1001.34,VALID,0,VALID,94.4928,VALID,0,VALID,23.4866,VALID,42,VALID,1.24023,
2012-06-21, 02:42:04,VALID,1001.35,VALID,0,VALID,94.4852,VALID,0,VALID,23.4671,VALID,42,VALID,1.10469,
2012-06-21, 02:43:04,VALID,1001.37,VALID,0,VALID,94.4928,VALID,0,VALID,23.4671,VALID,42,VALID,1.09492,
2012-06-21, 02:44:04,VALID,1001.36,VALID,0,VALID,94.5462,VALID,0,VALID,23.4671,VALID,42,VALID,0.875781,
2012-06-21, 02:45:04,VALID,1001.36,VALID,0,VALID,94.5844,VALID,0,VALID,23.4475,VALID,42,VALID,0.789453,
2012-06-21, 02:46:04,VALID,1001.39,VALID,0,VALID,94.6073,VALID,0,VALID,23.428,VALID,42,VALID,0.754687,
2012-06-21, 02:47:04,VALID,1001.43,VALID,0,VALID,94.6454,VALID,0,VALID,23.4475,VALID,42,VALID,0.701172,
2012-06-21, 02:48:04,VALID,1001.41,VALID,0,VALID,94.6836,VALID,0,VALID,23.4493,VALID,42,VALID,0.565625,
2012-06-21, 02:49:04,VALID,1001.46,VALID,0,VALID,94.6912,VALID,0,VALID,23.428,VALID,42,VALID,0.476172,
2012-06-21, 02:50:04,VALID,1001.48,VALID,0,VALID,94.7217,VALID,0,VALID,23.428,VALID,42,VALID,0.380078,
2012-06-21, 02:51:04,VALID,1001.46,VALID,0,VALID,94.7523,VALID,0,VALID,23.428,VALID,42,VALID,0.48125,
2012-06-21, 02:52:04,VALID,1001.51,VALID,0,VALID,94.7523,VALID,0,VALID,23.428,VALID,42,VALID,0.539844,
2012-06-21, 02:53:04,VALID,1001.52,VALID,0,VALID,94.737,VALID,0,VALID,23.428,VALID,42,VALID,0.504297,
2012-06-21, 02:54:04,VALID,1001.5,VALID,0,VALID,94.7446,VALID,0,VALID,23.428,VALID,42,VALID,0.388672,
2012-06-21, 02:55:04,VALID,1001.51,VALID,0,VALID,94.7751,VALID,0,VALID,23.4475,VALID,42,VALID,0.453125,
2012-06-21, 02:56:04,VALID,1001.51,VALID,0,VALID,94.7904,VALID,0,VALID,23.4263,VALID,42,VALID,0.647266,
2012-06-21, 02:57:04,VALID,1001.52,VALID,0,VALID,94.7904,VALID,0,VALID,23.4884,VALID,43,VALID,0.710156,
2012-06-21, 02:58:04,VALID,1001.54,VALID,0,VALID,94.7599,VALID,0,VALID,23.4866,VALID,69,VALID,0.679297,
2012-06-21, 02:59:04,VALID,1001.57,VALID,0,VALID,94.7675,VALID,0,VALID,23.5256,VALID,98,VALID,1.04648,
2012-06-21, 03:00:04,VALID,1001.61,VALID,0,VALID,94.7675,VALID,0,VALID,23.5841,VALID,100,VALID,1.2,
2012-06-21, 03:01:04,VALID,1001.61,VALID,0,VALID,94.7294,VALID,0,VALID,23.6427,VALID,100,VALID,1.05156,
2012-06-21, 03:02:04,VALID,1001.65,VALID,0,VALID,94.6683,VALID,0,VALID,23.7012,VALID,100,VALID,1.14375,
2012-06-21, 03:03:04,VALID,1001.67,VALID,0,VALID,94.5997,VALID,0,VALID,23.7402,VALID,100,VALID,1.28008,
2012-06-21, 03:04:04,VALID,1001.7,VALID,0,VALID,94.5081,VALID,0,VALID,23.7597,VALID,91,VALID,0.796484,
2012-06-21, 03:05:04,VALID,1001.71,VALID,0,VALID,94.4318,VALID,0,VALID,23.7793,VALID,91,VALID,0.878906,
2012-06-21, 03:06:04,VALID,1001.74,VALID,0,VALID,94.3403,VALID,0,VALID,23.7775,VALID,91,VALID,0.688281,
2012-06-21, 03:07:04,VALID,1001.75,VALID,0,VALID,94.2945,VALID,0,VALID,23.7793,VALID,127,VALID,1.03125,
2012-06-21, 03:08:04,VALID,1001.74,VALID,0,VALID,94.2945,VALID,0,VALID,23.8183,VALID,123,VALID,1.08594,
2012-06-21, 03:09:04,VALID,1001.7,VALID,0,VALID,94.2563,VALID,0,VALID,23.8573,VALID,140,VALID,0.858984,
2012-06-21, 03:10:04,VALID,1001.72,VALID,0,VALID,93.9817,VALID,0,VALID,23.9159,VALID,136,VALID,1.41992,
2012-06-21, 03:11:04,VALID,1001.69,VALID,0,VALID,93.2263,VALID,0,VALID,24.0329,VALID,130,VALID,1.64766,
2012-06-21, 03:12:04,VALID,1001.67,VALID,0,VALID,92.0285,VALID,0,VALID,24.1696,VALID,137,VALID,1.89414,
2012-06-21, 03:13:04,VALID,1001.69,VALID,0,VALID,90.968,VALID,0,VALID,24.2866,VALID,140,VALID,0.987891,
2012-06-21, 03:14:04,VALID,1001.66,VALID,0,VALID,90.3957,VALID,0,VALID,24.3452,VALID,140,VALID,1.2125,
2012-06-21, 03:15:04,VALID,1001.66,VALID,0,VALID,89.9685,VALID,0,VALID,24.3647,VALID,135,VALID,1.08555,
2012-06-21, 03:16:04,VALID,1001.65,VALID,0,VALID,89.6557,VALID,0,VALID,24.3842,VALID,133,VALID,1.65117,
2012-06-21, 03:17:04,VALID,1001.67,VALID,0,VALID,89.4878,VALID,0,VALID,24.4233,VALID,147,VALID,1.24922,
2012-06-21, 03:18:04,VALID,1001.67,VALID,0,VALID,89.3657,VALID,0,VALID,24.4233,VALID,150,VALID,1.6082,
2012-06-21, 03:19:04,VALID,1001.68,VALID,0,VALID,89.3123,VALID,0,VALID,24.4623,VALID,152,VALID,1.60391,
2012-06-21, 03:20:04,VALID,1001.69,VALID,0,VALID,89.0224,VALID,0,VALID,24.5013,VALID,146,VALID,1.76445,
2012-06-21, 03:21:04,VALID,1001.71,VALID,0,VALID,88.7249,VALID,0,VALID,24.5209,VALID,148,VALID,1.96797,
2012-06-21, 03:22:04,VALID,1001.71,VALID,0,VALID,88.4426,VALID,0,VALID,24.5404,VALID,154,VALID,1.84648,
2012-06-21, 03:23:04,VALID,1001.71,VALID,0,VALID,88.3052,VALID,0,VALID,24.5404,VALID,149,VALID,1.99648,
2012-06-21, 03:24:04,VALID,1001.73,VALID,0,VALID,87.8246,VALID,0,VALID,24.5385,VALID,152,VALID,2.36367,
2012-06-21, 03:25:04,VALID,1001.75,VALID,0,VALID,87.6109,VALID,0,VALID,24.5989,VALID,149,VALID,2.02969,
2012-06-21, 03:26:04,VALID,1001.75,VALID,0,VALID,86.9929,VALID,0,VALID,24.6184,VALID,134,VALID,2.52891,
2012-06-21, 03:27:04,VALID,1001.73,VALID,0,VALID,86.9624,VALID,0,VALID,24.638,VALID,135,VALID,2.02266,
2012-06-21, 03:28:04,VALID,1001.73,VALID,0,VALID,87.176,VALID,0,VALID,24.6184,VALID,136,VALID,2.12461,
2012-06-21, 03:29:04,VALID,1001.74,VALID,0,VALID,86.9777,VALID,0,VALID,24.6184,VALID,137,VALID,1.66133,
2012-06-21, 03:30:04,VALID,1001.73,VALID,0,VALID,86.9319,VALID,0,VALID,24.5989,VALID,138,VALID,1.89531,
2012-06-21, 03:31:04,VALID,1001.77,VALID,0,VALID,87.1074,VALID,0,VALID,24.5971,VALID,142,VALID,1.41562,
2012-06-21, 03:32:04,VALID,1001.74,VALID,0,VALID,86.6877,VALID,0,VALID,24.5989,VALID,147,VALID,1.89219,
2012-06-21, 03:33:04,VALID,1001.76,VALID,0,VALID,86.7488,VALID,0,VALID,24.6184,VALID,144,VALID,1.72695,
2012-06-21, 03:34:04,VALID,1001.77,VALID,0,VALID,86.848,VALID,0,VALID,24.5989,VALID,146,VALID,1.43242,
2012-06-21, 03:35:04,VALID,1001.77,VALID,0,VALID,86.4741,VALID,0,VALID,24.5989,VALID,147,VALID,1.87422,
2012-06-21, 03:36:04,VALID,1001.8,VALID,0,VALID,85.6425,VALID,0,VALID,24.6575,VALID,149,VALID,1.93242,
2012-06-21, 03:37:04,VALID,1001.8,VALID,0,VALID,85.2381,VALID,0,VALID,24.677,VALID,141,VALID,1.7543,
2012-06-21, 03:38:04,VALID,1001.81,VALID,0,VALID,85.7874,VALID,0,VALID,24.6965,VALID,134,VALID,1.22891,
2012-06-21, 03:39:04,VALID,1001.79,VALID,0,VALID,85.7874,VALID,0,VALID,24.638,VALID,140,VALID,1.22227,
2012-06-21, 03:40:04,VALID,1001.81,VALID,0,VALID,85.6349,VALID,0,VALID,24.638,VALID,141,VALID,1.72227,
2012-06-21, 03:41:04,VALID,1001.79,VALID,0,VALID,85.2229,VALID,0,VALID,24.677,VALID,138,VALID,1.5918,
2012-06-21, 03:42:04,VALID,1001.83,VALID,0,VALID,85.2763,VALID,0,VALID,24.677,VALID,150,VALID,1.47031,
2012-06-21, 03:43:04,VALID,1001.82,VALID,0,VALID,84.994,VALID,0,VALID,24.6965,VALID,148,VALID,1.66758,
2012-06-21, 03:44:04,VALID,1001.86,VALID,0,VALID,84.6125,VALID,0,VALID,24.716,VALID,147,VALID,1.69883,
2012-06-21, 03:45:04,VALID,1001.87,VALID,0,VALID,85.1084,VALID,0,VALID,24.7356,VALID,138,VALID,1.09531,
2012-06-21, 03:46:04,VALID,1001.85,VALID,0,VALID,84.5896,VALID,0,VALID,24.7356,VALID,150,VALID,1.6,